Regional Weather Roundup
Issued by NWS Wakefield, VA

Home | Current Version | Previous Version | Text Only | Print | Product List | Glossary Off
Versions: 1 2 3 4 5 6 7 8 9 10 11 12 13 14 15 16 17 18 19 20 21 22 23 24 25 26 27 28 29 30 31 32 33 34 35 36 37 38 39 40 41 42 43 44 45 46 47 48 49

812
ASUS41 KAKQ 091915
RWRAKQ

REGIONAL WEATHER ROUNDUP
NATIONAL WEATHER SERVICE WAKEFIELD VA
200 PM EST TUE FEB 09 2016

Note: "fair" indicates few or no clouds below 12,000 feet with no
significant weather and/or obstructions to visibility. * = Denotes
station may not report precipitation (e.g., rain,snow,etc.),
thunder or fog.

VAZ042-051-052>054-056-092000-
NORTHERN VIRGINIA

CITY           SKY/WX    TMP DP  RH WIND       PRES   REMARKS
WASH NATIONAL  CLOUDY    38  34  85 N12       29.56S
DULLES         CLOUDY    39  33  79 NW12      29.54F
FORT BELVOIR   PTSUNNY   40  32  74 NW9       29.55S
QUANTICO       LGT RAIN  41  34  76 NW9       29.57S
FREDERICKSBRG* LGT RAIN  38  37  96 W6        29.56R
STAFFORD*      HVY RAIN  34  32  90 W6        29.61R VSB 1
WARRENTON      LGT SNOW  34  34 100 W5        29.55R VSB 3/4
CULPEPER*      LGT SNOW  33  32  98 NW5       29.57S
MANASSAS*      NOT AVBL
LEESBURG*      CLOUDY    37  32  81 NW10G20   29.55S
WINCHESTER     CLOUDY    36  28  75 W14G25    29.55R
FRONT ROYAL*   CLOUDY    36  27  69 W7        29.54S
LURAY*         MOCLDY    36  23  60 CALM      29.53F
$$

VAZ048-049-060>072-079>083-092000-
CENTRAL AND SOUTH CENTRAL VIRGINIA

CITY           SKY/WX    TMP DP  RH WIND       PRES   REMARKS
RICHMOND       PTSUNNY   44  30  57 NW9       29.55F
CHESTERFIELD*  CLOUDY    39  21  48 W13       29.58R
PETERSBURG*    CLOUDY    48  24  38 SW10      29.56S
HANOVER        PTSUNNY   44  32  62 VRB6      29.56F
TAPPAHANNOCK*  CLOUDY    43  34  71 W7        29.55S
QUINTON*       CLOUDY    44  32  61 NW9       29.54F
CHARLOTTSVILLE PTSUNNY   44  21  40 VRB7      29.53F
GORDONSVILLE*  MOCLDY    42  28  58 NW3       29.53F
ORANGE*        CLOUDY    45  30  57 SW10G16   29.55F
LOUISA*        CLOUDY    45  30  57 NW7       29.52F
BUMPASS*       CLOUDY    43  31  62 W6        29.54F
FARMVILLE*     CLOUDY    43  24  47 SW9       29.55F
CREWE*         CLOUDY    43  26  50 W12G17    29.56S
FORT PICKETT*  CLOUDY    44  26  48 W14G20    29.56S
CHASE CITY*    CLOUDY    40  19  41 SW12G21   29.58F
CLARKSVILLE*   CLOUDY    39  25  56 W8        29.60S
SOUTH HILL*    CLOUDY    42  25  51 W7G17     29.63S
LAWRENCEVILLE* CLOUDY    44  26  50 W6        29.56F
EMPORIA*       PTSUNNY   45  28  53 SW14      29.58F
$$

VAZ088>098-092000-
SOUTHEAST VIRGINIA

CITY           SKY/WX    TMP DP  RH WIND       PRES   REMARKS
NORFOLK        PTSUNNY   47  28  47 W10G21    29.55F
VIRGINIA BEACH PTSUNNY   52  28  39 W17       29.54F
NORFOLK NAVAL  PTSUNNY   47  28  47 SW16      29.56F
WEST POINT*    CLOUDY    43  33  69 W6        29.56S
SALUDA*        MOCLDY    43  34  70 W8        29.54R
NEWPORT NEWS   CLOUDY    46  30  53 W10       29.54F
LANGLEY AFB    CLOUDY    46  30  54 SW15      29.54R
FORT EUSTIS    DRIZZLE   45  30  54 W14G23    29.54S
WILLIAMSBURG*  FAIR      48  32  53 W9        29.55F
HR EXEC AP*    MOCLDY    46  28  49 NW10G17   29.57F
FRANKLIN*      CLOUDY    45  27  49 W14       29.57F
US460-WAKEFLD  CLOUDY    46  29  51 VRB7      29.56F
$$

VAZ020-022-025-037-045-092000-
WEST CENTRAL AND SOUTHWEST VIRGINIA

CITY           SKY/WX    TMP DP  RH WIND       PRES   REMARKS
STAUNTON*      CLOUDY    42  21  43 NW7       29.54F
WAYNESBORO*    MOCLDY    36  18  48 W8G18     29.52F
HOT SPRINGS VA LGT SNOW  21  15  75 W20G25    29.43F WCI   6
LYNCHBURG      CLOUDY    37  19  48 W12G20    29.59S
DANVILLE       CLOUDY    39  18  42 W10       29.62F
SOUTH BOSTON*  CLOUDY    40  17  40 W9G20     29.61S
MARTINSVILLE   CLOUDY    32  16  50 NW13G21   29.65S WCI  23
ROANOKE        CLOUDY    32  15  49 W12       29.63F WCI  23
BLACKSBURG     PTSUNNY   28  17  62 W12G21    29.61F WCI  18
DUBLIN*        CLOUDY    27  16  63 W16G23    29.61F WCI  15
MARION*        SNOW      22  17  80 W16       29.63R VSB 1/4 WCI   8
HILLSVILLE*    CLOUDY    24  11  56 W18G25    29.55F WCI  10
RICHLANDS*     FLURRIES  19  11  68 W8        29.63S
WISE*          FLURRIES  21  10  63 NW12      29.66R WCI   9
ABINGDON*      LGT SNOW  24  14  67 W10G17    29.68S WCI  13
$$

MDZ021>025-VAZ099-100-092000-
SOUTHERN MARYLAND AND THE DELMARVA PENINSULA

CITY           SKY/WX    TMP DP  RH WIND       PRES   REMARKS
PATUXENT RIVER LGT RAIN  36  33  89 NW15      29.54S
BAY BRIDGE APT LGT RAIN  36  36 100 CALM      29.54S
LEONARDTOWN    CLOUDY    36  34  93 NW3       29.56R
DOVER          CLOUDY    39  39 100 E9        29.52S
GEORGETOWN     LGT RAIN  39  36  89 SE8       29.53S FOG
EASTON         LGT RAIN  39  39 100 S7        29.56F FOG
CAMBRIDGE      PTSUNNY   41  36  81 SE5       29.52F
SALISBURY      PTSUNNY   42  38  85 E7        29.52F
OCEAN CITY     LGT RAIN  41  37  86 SE6       29.54S
WALLOPS ISLAND PTSUNNY   43  38  82 E5        29.54S
ACCOMACK*      CLOUDY    43  34  70 SW7       29.53F
$$

NCZ012>017-030>032-092000-
NORTH CENTRAL AND EASTERN NORTH CAROLINA

CITY           SKY/WX    TMP DP  RH WIND       PRES   REMARKS
ROANOKE RAPIDS CLOUDY    45  30  57 W12G17    29.58F
RALEIGH        PTSUNNY   42  23  46 W8        29.62F
ELIZABETH CITY CLOUDY    48  29  47 W14       29.57F
AHOSKIE*       LGT RAIN  44  29  56 CALM      29.58F
EDENTON*       CLOUDY    48  30  49 W13G18    29.59F
CURRITUCK*     MOSUNNY   49  31  49 SW15G22   29.57F
KILL DEVIL HLS MOSUNNY   50  32  50 W14G20    29.57S
MANTEO         CLOUDY    49  32  52 W16G22    29.59S
CAPE HATTERAS  PTSUNNY   47  34  60 W9G18     29.62F
TARBORO*       CLOUDY    46  30  53 SW13      29.60F
GOLDSBORO      CLOUDY    46  32  57 SW20      29.60F
WASHINGTON     MOSUNNY   45  32  59 W14       29.60S
GREENVILLE     LGT RAIN  39  36  87 N7        29.64S
NEW BERN       CLOUDY    46  31  55 W13G24    29.63F
WILMINGTON     MOSUNNY   48  26  42 W20G28    29.67F
$$

VAZ048-092000-
ELSEWHERE

CITY           SKY/WX    TMP DP  RH WIND       PRES   REMARKS
HARRISBURG PA  SNOW      31  28  89 CALM      29.54F VSB 1/2
BALTIMORE      LGT RAIN  36  33  89 CALM      29.53F FOG
ANNAPOLIS      LGT RAIN  36  34  92 NW5       29.54S FOG
ANDREWS AFB    LGT RAIN  37  34  89 W12       29.53S
PHILADELPHIA   LGT SNOW  37  30  75 NE8       29.56S
HENDERSON NC   PTSUNNY   41  23  48 W7        29.59F
GREENSBORO     CLOUDY    38  16  40 W15G22    29.61F
ROCKY MOUNT    LGT RAIN  38  33  82 W9G23     29.61F
$$

VAZ100-092000-
MARINE

STATION/POSITION TIME  TEMP    WIND        PRES    WAVE   SWELL
                       AIR SEA DIR/SP/G            HT/PER HT/PER
                 (UTC) (F)     (DEG/KT/KT) (MB)    (FT/S) (FT/S)
BRANDYWINE LGT   1800   39      90/ 14/ 15  999.9F
CAPE MAY NJ      1800   40 42   80/  7/ 10  999.8F
LEWES DE         1800   40 41   90/ 12/ 15  999.8F
15NM E FENWICK I 1850   41 43               999.9F   8/14
OCEAN-CITY-INLET 1800   41 41   90/  5/  8  999.4F
WACHAPREAGUE VA  1800   42 43  190/  6/  7 1000.4F
GOOSES REEF MD   1900   37 40  310/ 12/ 16 1001.3S   1
COVE POINT MD    1800   38     200/  4/  5 1000.8F
SOLOMONS ISLAND  1800   41 41  340/  2/  4   N/A
BISHOPS HEAD MD  1800   40 41  160/  4/  4  999.2F
PINEY POINT MD   1800          340/  4/  5   N/A
POTOMAC MD       1900   40 42  290/  6/ 10  999.1F   0
CAMBRIDGE MD     1800   39 40   90/  3/  4  999.3F
LEWISETTA VA     1800   40 42  110/  2/  2 1000.0F
RAPPAHANNOCK LGT 1800          200/ 13/ 14 1000.6F
STINGRAY PT      1900   44 43  310/  6/ 10  999.9F   1
YORK RVR RNG VA  1800   44     270/ 10/ 11  999.8F
YORKTOWN VA      1800   45 43  270/ 10/ 16 1000.1F
JAMESTOWN VA     1900   44 44  280/  8/ 12   N/A     1
DOMINION TERM VA 1800   44     290/ 12/ 13 1000.7F
KIPTOPEKE VA     1800      43  280/  7/ 10   N/A
CHES BAY BRIDGE  1800   44 44  230/ 16/ 18 1000.4F
CAPE HENRY VA    1800   45     290/  7/ 11   N/A
CHESAPEAKE LGHT  1800   44     300/ 12/ 12 1002.0
WILLOUBY STN VA  1800   44     250/ 15/ 18   N/A
CAPE HENRY BUOY  1828      45                N/A     5/14   3/14
1ST LANDING BUOY 1900      44                N/A     3/ 6
CAPE CHARLES BUO 1826      44                N/A     6/13   7/13
OFFSHORE WE BUOY 1821      46                N/A     6/14   7/14
64NM E OF VA BCH 1850   44 51  280/ 16/ 21 1000.9R  11/14  10/14
DUCK PIER NC     1800   45     240/ 15/ 18 1001.3F
44100 DUCK FRF   1824      47                N/A     8/14   7/14
44056 DUCK FRF   1811      45                N/A     7/13   7/13
OREGON INLET NC  1800   47 45  260/ 11/ 14 1002.0F
HATTERAS NC      1800   45 52  270/ 17/ 20 1002.6F
DIAMOND SHLS NC  1850   47 73  290/ 17/ 27 1002.7F  11/14  10/14
$$




USA.gov is the U.S. government's official web portal to all federal, state and local government web resources and services.